Regional Weather Roundup
Issued by NWS Cleveland, OH

Home | Current Version | Previous Version | Text Only | Print | Product List | Glossary Off
Versions: 1 2 3 4 5 6 7 8 9 10 11 12 13 14 15 16 17 18 19 20 21 22 23 24 25 26 27 28 29 30 31 32 33 34 35 36 37 38 39 40 41 42 43 44 45 46 47 48 49 50

000
ASUS41 KCLE 291710
RWRCLE
OHIO REGIONAL WEATHER ROUNDUP
NATIONAL WEATHER SERVICE CLEVELAND, OH
100 PM EDT SUN MAY 29 2016

NOTE: "FAIR" INDICATES FEW OR NO CLOUDS BELOW 12,000 FEET WITH NO
SIGNIFICANT WEATHER AND/OR OBSTRUCTIONS TO VISIBILITY.

OHZ001>008-015>018-024>027-034-035-043-044-291800-
   NORTHWEST OHIO

CITY           SKY/WX    TMP DP  RH WIND       PRES   REMARKS
DEFIANCE       MOSUNNY   84  64  50 SW12      30.03F
FINDLAY        CLOUDY    83  66  56 S13       30.05F
TOLEDO EXPRESS CLOUDY    81  65  58 SW9G20    30.03F
TOLEDO EXEC    CLOUDY    83  65  54 SW15G23   30.05F
LIMA           MOSUNNY   81  66  60 SW10G18   30.07F
$$

OHZ009>014-019>023-028>033-038-089-291800-
   NORTHEAST OHIO

CITY           SKY/WX    TMP DP  RH WIND       PRES   REMARKS
CLE-HOPKINS    CLOUDY    81  65  58 SW7       30.10S
CLE-LAKEFRONT  CLOUDY    82  65  56 SW9       30.06F
CUY CO. ARPT   CLOUDY    84  66  54 W14       30.09S
LORAIN-ELYRIA  CLOUDY    78  67  68 SW9       30.08F
ASHTABULA      CLOUDY    80  67  64 S7        30.09S
AKRON-CANTON   CLOUDY    79  62  56 SW8       30.11S
WOOSTER        CLOUDY    80  65  59 SW10      30.11F
MANSFIELD      CLOUDY    77  67  71 S10       30.11F
YOUNGSTOWN     CLOUDY    80  65  59 SW9       30.11R
$$

OHZ042-051>053-060>062-070>072-077>081-291800-
  SOUTHWEST OHIO

CITY           SKY/WX    TMP DP  RH WIND       PRES   REMARKS
CINC-COVINGTON CLOUDY    83  67  58 SW7       30.10F
CINC-LUNKEN    MOSUNNY   82  70  66 S7        30.09F
HAMILTON       SUNNY     85  68  56 CALM      30.09F
DAYTON         PTSUNNY   80  66  62 SW10      30.10F
WRIGHT-PAT AFB MOSUNNY   82  69  65 SW7       30.09F
DAYTON GENERAL CLOUDY    80  64  58 SW8       30.09F
WILMINGTON     CLOUDY    80  67  64 SW9       30.11F
$$

OHZ036-037-039>041-045>050-054>059-063>069-073>076-082>088-291800-
  CENTRAL AND SOUTHEAST OHIO

CITY           SKY/WX    TMP DP  RH WIND       PRES   REMARKS
COLUMBUS       CLOUDY    78  66  66 SW7       30.11S
OSU AIRPORT    PTSUNNY   78  67  68 S8        30.10F
BOLTON FIELD   SUNNY     77  68  73 S7        30.12F
RICKENBACK AFB CLOUDY    78  65  66 S8        30.10F
NEWARK         PTSUNNY   81  63  54 SW6       30.11R
MARION         CLOUDY    79  67  66 VRB7      30.10F
LANCASTER      PTSUNNY   77  66  68 SW5       30.12S
ZANESVILLE     PTSUNNY   82  62  50 W5        30.12R
NEW PHILLY     CLOUDY    80  67  64 CALM      30.11F
$$



USA.gov is the U.S. government's official web portal to all federal, state and local government web resources and services.